Вернуться в каталог

CZ-6A DEB

АктивенPO
NORAD 61131·DEBRIS·🇨🇳 China

Запущен Aug 6, 2024 с Taiyuan Satellite Launch Center

Loading…

Ближайшие Пролёты (ближайшие 24 часа)

TLE

СвежийSource: Space-Track

Эпоха: Sep 14, 2026, 12:24 UTC

1 61131U 24140PZ  26257.51692334  .00009502  00000-0  23404-2 0  9999
2 61131  89.1914 279.8727 0047146  72.3021 288.3325 14.51467785108586

Отслеживайте CZ-6A DEB в реальном времени с AllMySat

Download on the App Store